Location: Unspecified
(0.0000°N, 0.0000°E)
Time: 17:49:17
(UTC+00:00)

Vanguard 3 - Pass Details

Date: 02 October 2023
Orbit: 507 x 3241 km, 33.3° (Epoch: 29 November)

Event Time Altitude Azimuth Distance (km) Brightness Sun altitude
Rises 01:12:06 0° 314° (NW) 2,694 - -69.1°
Reaches altitude 10° 01:14:23 10° 321° (NW) 1,723 - -68.5°
Maximum altitude 01:17:55 47° 36° (NE) 685 - -67.7°
Drops below altitude 10° 01:21:49 10° 111° (ESE) 1,894 - -66.7°
Sets 01:24:27 0° 117° (ESE) 3,005 - -66.1°
